Regional Weather Roundup
Issued by NWS Portland, ME

Current Version | Previous Version | Text Only | Print | Product List | Glossary Off
Versions: 1 2 3 4 5 6 7 8 9 10 11 12 13 14 15 16 17 18 19 20 21 22 23 24 25 26 27 28 29 30 31 32 33 34 35 36 37 38 39 40 41 42 43 44 45 46 47 48 49 50
000 ASUS41 KGYX 181210 RWRGYX WEATHER ROUNDUP FOR MAINE AND NEW HAMPSHIRE NATIONAL WEATHER SERVICE GRAY ME 800 AM EDT TUE SEP 18 2018 MEZ002-005-006-010-012-015-018-020-021-024-026-027-029-181300- MAINE CITY SKY/WX TMP DP RH WIND PRES REMARKS PORTLAND LGT RAIN 69 68 96 S9G18 29.82F 6HR MIN TEMP: 69; 6HR MAX TEMP: 71; 6HR PCP: 0.07; SANFORD RAIN 68 67 96 CALM 29.83F FOG BAR HARBOR CLOUDY 67 65 93 SW5 29.82R WISCASSET CLOUDY 68 68 100 SW5 29.83F 6HR MIN TEMP: 64; 6HR MAX TEMP: 68; 6HR PCP: 0.01; ROCKLAND CLOUDY 68 67 96 SW8 29.82F FRYEBURG LGT RAIN 68 67 96 CALM 29.82F 6HR MIN TEMP: 68; 6HR MAX TEMP: 72; 6HR PCP: 0.01; LEWISTONAUBURN LGT RAIN 69 67 93 S5 29.82S AUGUSTA FAIR 66 65 96 CALM 29.82S 6HR MIN TEMP: 64; 6HR MAX TEMP: 66; WATERVILLE FAIR 64 64 100 SW6 29.79F BANGOR PTSUNNY 67 64 90 S8 29.80F 6HR MIN TEMP: 64; 6HR MAX TEMP: 67; GREENVILLE N/A 65 60 84 CALM 29.79S 6HR MIN TEMP: 62; 6HR MAX TEMP: 67; MILLINOCKET FAIR 65 61 87 VRB3 29.78S 6HR MIN TEMP: 63; 6HR MAX TEMP: 67; HOULTON FAIR 65 64 97 SW8 29.74S 6HR MIN TEMP: 62; 6HR MAX TEMP: 67; PRESQUE ISLE FAIR 65 62 90 CALM 29.73S 6HR MIN TEMP: 61; 6HR MAX TEMP: 70; FRENCHVILLE LGT RAIN 57 53 86 N9 29.74S FOG 6HR MIN TEMP: 57; 6HR MAX TEMP: 71; 6HR PCP: 0.12; CARIBOU CLOUDY 66 61 84 S3 29.71F 6HR MIN TEMP: 63; 6HR MAX TEMP: 67; $$ NHZ002-005-008-009-011-012-014-181300- NEW HAMPSHIRE CITY SKY/WX TMP DP RH WIND PRES REMARKS ROCHESTER LGT RAIN 68 68 100 CALM 29.83F FOG 6HR MIN TEMP: 68; 6HR MAX TEMP: 69; 6HR PCP: 0.17; NASHUA HVY RAIN 68 68 100 N5 29.80S FOG MANCHESTER HVY RAIN 68 68 100 N10 29.79F VSB 1 6HR MIN TEMP: 68; 6HR MAX TEMP: 71; 6HR PCP: 2.17; CONCORD HVY RAIN 68 67 96 E6 29.81F FOG 6HR MIN TEMP: 68; 6HR MAX TEMP: 69; 6HR PCP: 0.32; LACONIA CLOUDY 68 67 96 CALM 29.83F FOG PLYMOUTH LGT RAIN 64 62 95 CALM 29.81F BERLIN FAIR 61 59 93 CALM 29.84S 6HR MIN TEMP: 56; 6HR MAX TEMP: 61; WHITEFIELD PTSUNNY 61 59 93 CALM 29.83F 6HR MIN TEMP: 57; 6HR MAX TEMP: 61; JAFFREY HVY RAIN 66 66 100 CALM 29.83S FOG 6HR MIN TEMP: 66; 6HR MAX TEMP: 70; 6HR PCP: 1.47; KEENE RAIN N/A N/A N/A CALM 29.79F LEBANON LGT RAIN 69 66 90 S3 29.80S FOG 6HR MIN TEMP: 68; 6HR MAX TEMP: 71; 6HR PCP: 0.55; MT WASHINGTON FOG 52 52 100 W20G29 N/A VSB 1/16 6HR MIN TEMP: 52; 6HR MAX TEMP: 53; $$ VTZ005-007-008-181300- VERMONT CITY SKY/WX TMP DP RH WIND PRES REMARKS ST JOHNSBURY N/A 61 59 93 MISG 29.81F MONTPELIER FAIR 64 63 96 CALM 29.87R BURLINGTON PTSUNNY 71 67 87 CALM 29.80R $$ MAZ007-012-024-CTZ003-RIZ002-NYZ038-NYZ072-181300- SOUTHERN NEW ENGLAND AND NY CITY SKY/WX TMP DP RH WIND PRES REMARKS BOSTON LGT RAIN 74 71 91 S10 29.79F WORCESTER CLOUDY 71 70 96 S12 29.80F NANTUCKET FAIR 70 69 97 S13 29.88F PROVIDENCE LGT RAIN 76 73 91 SW18G24 29.80F HARTFORD LGT RAIN 75 73 93 S13 29.75F ALBANY LGT RAIN 68 65 90 NW7 29.80S FOG NEW YORK CITY LGT RAIN 78 73 84 S8 29.77S $$ ANZ081-ANZ082-ANZ150-NHZ014-MEZ023>029-181300- COASTAL MARINE OBSERVATIONS STATION/POSITION TIME TEMP WIND PRES WAVE AIR SEA DIR/SP/G HT/PER (UTC) (F) (DEG/KT/KT) (MB) (FT/S) MOUNT DESERT ROC 1200 62 210/ 19/ 20 1009.9F MATINICUS ROCK 1100 63 220/ 19/ 20 1010.0S ISLE OF SHOALS 1100 68 200/ 11/ 11 1010.4F JEFFREYS LEDGE 1136 65 N/A 3/ 9 $$ .............KEY.............. WCI - WIND CHILL TC - TEMPERATURE IN CELSIUS VSB - VISIBILITY IN MILES HX - HEAT INDEX FAIR- INDICATES FEW OR NO CLOUDS BELOW 12,000 FT, WITH NO SIGNIFICANT WEATHER AND/OR OBSTRUCTIONS TO VISIBILITY.

USA.gov is the U.S. government's official web portal to all federal, state and local government web resources and services.